GFSMA_500_rhum_132.txt.gz
RH
42 63 69 76 82 83 72 69 71 58 61 57 59 49 31 47 74 88 88 75 66 66 58 49 47 47 46 39 35 30 30 33 39 44 48 43 51 49 51 46 91 97 65
20 30 34 42 52 38 38 53 67 93 95 93 84 59 54 44 36 51 78 84 95 84 76 73 68 64 65 63 62 43 31 36 42 49 52 51 46 52 48 51 53 92 96
30 46 46 38 26 25 27 28 50 55 65 69 71 100 98 76 65 59 62 75 83 88 93 88 82 74 70 78 87 76 42 32 44 51 53 58 58 53 49 38 37 46 96
29 32 33 24 19 18 18 17 18 19 20 26 24 33 94 88 96 96 79 63 73 89 91 99 89 86 81 77 73 91 76 36 36 41 38 51 56 62 65 62 38 39 62
21 21 22 22 20 17 14 13 11 10 11 13 13 12 18 30 32 84 88 95 96 99 90 93 96 96 90 96 84 79 96 62 34 36 36 39 40 61 66 65 64 38 40
22 21 20 19 19 19 17 15 15 16 13 10 9 9 10 11 15 22 28 31 72 87 97 98 96 95 96 96 95 96 89 94 50 36 39 44 43 40 57 64 60 46 35
18 17 17 16 16 16 18 23 24 22 20 18 16 13 10 9 12 16 13 16 51 90 97 96 96 93 95 93 92 94 92 96 87 55 50 59 63 45 41 49 58 57 42
11 12 14 14 14 13 13 14 19 19 17 19 18 15 13 13 11 10 9 14 24 28 27 55 44 68 65 98 94 89 96 95 97 65 64 61 44 39 39 46 50 55 54
11 13 13 13 13 12 13 13 12 14 18 21 19 14 12 12 10 14 12 13 27 27 42 54 33 34 58 74 92 97 96 95 87 72 71 58 44 48 42 48 62 65 60
13 12 12 10 9 8 8 39 20 28 32 35 42 43 28 16 13 11 19 17 22 19 30 41 31 36 63 64 61 95 97 93 95 79 59 32 24 28 35 22 48 78 58
10 10 10 12 18 21 19 18 35 40 42 46 48 51 51 50 37 25 13 21 16 18 20 22 41 30 51 59 53 65 96 97 97 94 68 62 30 20 23 20 16 56 66
13 20 37 46 60 55 51 35 30 34 37 58 56 50 75 51 82 67 33 21 17 18 14 12 23 34 39 62 65 50 73 94 93 94 92 92 65 34 16 14 16 25 55
32 52 66 70 64 66 67 61 51 53 74 76 64 77 90 93 81 84 74 54 22 15 22 17 36 21 37 65 80 65 45 64 75 71 68 66 53 36 23 27 24 37 23
55 51 63 70 74 83 94 88 82 74 90 98 100 98 95 90 88 87 94 99 83 36 19 43 52 47 63 84 76 76 67 43 46 50 67 53 36 26 27 31 31 41 51
49 52 64 71 86 97 81 89 92 89 80 100 94 66 76 69 62 86 85 85 92 76 54 74 87 85 64 69 71 66 60 54 54 55 52 53 40 26 25 22 30 28 51
50 61 73 100 100 100 98 100 100 87 83 84 71 48 42 37 34 39 52 80 96 85 63 74 90 96 90 86 63 60 48 38 50 60 46 40 33 34 36 37 40 26 19
44 49 80 90 99 100 100 100 100 79 82 69 76 47 35 30 30 32 47 77 99 85 74 78 87 92 84 75 66 51 48 39 31 54 46 32 48 54 34 26 23 17 14
39 42 76 100 99 99 100 100 86 77 69 49 59 33 25 20 20 29 46 62 100 94 87 77 74 73 75 64 50 34 30 37 27 21 17 22 45 55 43 42 26 22 14
34 37 49 94 100 100 100 100 100 99 100 94 52 28 27 16 14 23 37 52 91 99 76 66 46 78 61 31 26 22 16 18 19 17 19 25 33 52 60 54 35 36 22
38 36 39 56 98 100 100 100 100 100 78 58 46 38 30 27 21 15 21 43 50 68 92 81 59 58 64 72 76 38 16 16 17 20 25 30 30 44 46 39 41 36 35
14 16 30 38 53 100 100 100 100 97 63 57 55 50 36 21 16 17 17 28 41 50 44 38 73 70 58 62 42 41 62 39 21 27 30 40 55 37 26 31 28 31 28
11 14 19 29 32 47 64 72 83 81 44 36 32 24 20 18 17 17 21 20 25 27 34 47 46 40 83 69 70 49 48 66 63 26 36 48 39 42 22 12 22 31 27
42 74 98 80 70 60 56 49 44 42 32 26 23 20 18 19 17 17 19 20 22 24 22 16 24 38 27 57 89 82 83 76 74 75 63 65 20 15 12 11 8 13 19
100 100 100 100 100 96 84 92 91 80 78 82 78 77 68 67 68 62 57 44 33 29 21 21 28 17 19 19 16 57 94 85 63 37 30 22 10 10 12 10 6 13 26
100 100 100 100 100 100 83 90 90 62 63 61 70 76 65 57 48 54 51 58 51 75 73 74 77 69 50 38 25 18 20 58 82 69 40 36 13 14 13 7 6 17 30
100 100 77 59 59 46 34 33 49 78 61 64 25 14 10 8 7 7 8 10 12 9 14 29 36 47 50 70 69 62 44 21 19 21 26 25 19 18 15 6 4 15 33

GFSMA_500_rhum_135.txt.gz
RH
14 15 14 14 34 50 82 80 64 48 53 82 93 78 54 57 60 66 70 83 81 90 97 90 72 64 50 47 44 41 33 36 26 25 30 39 48 49 52 47 50 65 95
54 58 53 31 18 18 25 37 43 40 38 36 54 74 83 93 97 95 93 94 67 68 93 97 90 82 74 62 56 53 47 50 37 29 29 38 48 54 49 48 44 41 55
38 43 37 40 33 30 32 40 39 25 21 22 25 28 47 66 68 70 95 97 97 97 91 89 91 87 83 80 79 78 73 78 61 32 30 34 44 54 58 55 50 41 35
26 25 25 24 24 23 27 26 28 24 19 18 18 17 20 27 41 51 43 81 66 92 96 97 93 93 95 91 86 81 85 88 89 56 32 33 39 45 62 65 61 55 42
24 24 22 22 22 22 21 20 20 21 20 17 15 14 13 13 14 14 14 14 24 17 62 56 80 97 97 97 94 95 92 98 98 94 50 31 34 32 40 61 69 72 70
19 18 17 18 18 19 19 19 20 19 18 17 16 16 14 14 13 10 9 9 10 10 15 47 56 97 96 96 96 97 96 96 97 97 95 53 31 31 34 37 54 71 70
14 13 12 13 14 14 14 15 16 16 15 15 14 14 14 16 16 16 13 12 11 9 9 17 46 38 95 71 60 56 96 97 97 97 98 82 38 32 36 37 37 50 65
11 10 10 10 9 9 8 8 8 11 11 11 11 12 12 14 16 19 20 19 16 13 12 17 37 18 23 16 16 30 46 94 96 96 96 98 56 45 54 64 52 37 46
11 11 11 11 12 11 11 12 9 9 11 11 11 10 8 8 11 17 18 20 16 13 13 18 20 21 21 15 11 22 43 73 90 97 92 99 87 61 50 61 53 42 39
12 11 11 12 14 15 16 15 14 13 12 12 12 12 14 8 7 10 23 25 15 14 15 23 14 15 18 19 20 28 55 60 75 97 96 94 97 91 59 46 40 41 42
12 13 13 13 13 12 11 10 10 9 10 13 18 22 21 27 20 15 16 30 32 29 24 25 30 33 26 20 21 26 49 75 58 76 97 94 96 96 74 50 36 42 25
12 11 16 20 18 16 16 23 23 18 23 44 42 31 24 22 40 38 39 25 20 37 47 38 31 33 27 19 13 25 47 68 60 52 95 97 97 95 71 50 28 37 23
18 19 18 16 20 24 28 42 58 59 61 58 55 53 36 21 29 53 54 46 46 50 57 76 56 35 28 18 13 17 42 39 60 53 65 96 96 95 70 62 44 38 36
22 20 18 16 17 29 41 37 50 61 69 64 70 61 57 48 50 74 56 71 84 60 57 66 83 89 55 20 12 16 38 49 52 62 50 64 95 94 90 95 84 56 48
23 17 20 23 19 30 53 44 70 78 81 77 72 85 89 84 94 92 80 55 49 47 63 64 70 100 100 73 14 26 36 88 96 99 83 73 86 97 94 92 86 70 47
22 29 32 33 39 43 50 71 74 89 94 98 97 86 85 90 89 67 46 40 29 24 23 60 92 100 94 84 34 61 38 99 90 92 95 89 79 82 93 95 81 73 60
22 25 34 33 35 39 42 88 95 99 95 98 100 100 98 96 78 48 40 31 26 18 22 51 87 100 99 95 83 72 88 97 97 98 100 88 76 78 69 69 72 69 61
25 31 34 34 37 36 40 91 92 100 99 100 100 100 98 75 65 49 31 22 21 16 18 41 95 100 94 93 100 100 100 98 91 87 75 67 69 73 85 83 82 74 64
33 35 36 36 38 35 40 81 99 100 100 100 96 87 81 55 58 44 37 31 16 16 14 19 65 96 94 88 86 99 92 97 89 73 69 42 37 50 76 73 73 85 62
51 39 9 11 15 24 37 67 100 99 100 100 97 99 100 100 75 45 38 36 26 19 15 18 31 70 86 85 81 68 72 73 73 51 31 31 26 27 90 74 58 58 71
19 14 12 18 32 44 49 60 85 100 100 100 100 100 92 76 62 50 42 37 18 15 15 16 25 35 48 70 88 87 77 64 63 76 20 18 18 28 22 18 18 20 31
28 26 40 77 95 91 96 100 99 99 100 100 100 100 69 45 34 28 23 18 16 15 15 15 18 23 24 36 46 55 84 79 72 69 36 22 16 15 16 15 16 20 36
54 76 99 100 100 100 100 99 88 84 82 78 88 84 41 36 32 32 31 29 26 22 20 21 21 20 20 22 20 30 45 61 76 66 64 67 56 32 17 16 19 19 18
100 100 100 100 100 100 88 80 91 98 82 66 73 81 75 72 70 70 62 66 64 51 47 51 61 59 40 28 23 22 18 28 43 68 66 56 38 64 87 61 36 18 23
100 100 100 100 100 93 71 61 69 77 91 70 61 47 52 42 22 16 12 8 10 11 16 16 23 24 32 47 66 47 36 24 18 21 28 55 71 68 63 81 80 60 51
100 100 100 85 70 45 42 28 24 22 24 22 21 24 18 9 8 8 7 7 7 7 7 7 8 9 8 7 9 13 31 46 73 52 30 25 26 38 87 89 78 45 48

GFSMA_500_rhum_138.txt.gz
RH
36 42 50 52 48 50 48 38 34 24 15 19 29 46 67 62 67 90 92 75 65 79 79 94 96 96 97 85 58 48 42 40 35 32 30 26 26 30 45 48 49 48 55
32 32 32 37 40 38 41 43 41 40 39 30 29 42 56 56 44 60 94 82 97 94 95 94 96 93 96 95 80 59 50 46 47 40 41 30 28 34 42 46 50 50 48
28 31 32 32 32 30 29 29 30 29 29 33 33 36 33 26 27 47 73 63 96 96 94 95 96 94 96 92 95 84 67 58 53 51 52 46 30 32 44 49 48 50 51
20 20 20 23 25 25 24 24 23 22 22 22 24 28 29 23 20 18 20 28 27 37 22 21 20 78 88 97 95 96 90 82 80 68 73 74 51 32 34 50 52 52 53
17 17 16 16 16 17 18 19 20 21 22 21 21 21 22 22 21 18 16 14 13 12 11 10 10 21 37 95 95 96 95 96 91 85 87 91 88 52 31 38 51 58 56
15 14 14 13 13 12 13 16 17 16 16 16 17 18 20 20 20 20 20 18 17 16 14 13 11 10 11 54 58 68 96 96 91 90 96 94 86 79 49 33 36 46 56
12 10 8 7 6 6 7 9 10 11 11 11 13 14 15 16 16 17 18 17 17 18 17 16 16 14 14 12 22 39 94 72 47 59 70 97 97 96 75 44 37 32 42
7 6 5 5 7 10 11 11 10 9 8 8 9 9 8 10 11 14 17 17 17 21 25 22 19 18 17 17 25 22 21 27 24 40 69 66 95 96 98 89 57 49 45
5 5 5 5 8 12 13 12 11 11 11 12 14 12 9 9 12 12 13 15 17 24 32 29 27 22 20 19 20 18 14 13 17 26 51 65 70 96 97 94 59 54 53
5 4 6 8 11 14 13 11 11 11 12 14 15 16 17 14 12 11 12 14 14 25 42 41 26 18 16 31 30 36 19 11 11 21 45 49 55 81 96 96 93 54 56
5 8 13 14 14 13 10 9 9 10 13 12 12 12 12 14 14 13 12 17 18 19 29 26 30 30 21 22 20 21 17 12 9 15 22 36 52 75 87 96 95 60 56
11 13 16 17 15 12 11 13 14 12 14 16 15 15 14 14 12 12 12 15 26 24 35 49 43 37 36 24 26 23 19 8 8 11 21 28 56 63 85 96 96 94 93
20 19 21 22 19 18 16 17 16 14 14 13 15 28 42 34 29 36 28 24 17 20 28 40 44 44 46 50 54 35 25 11 7 12 16 31 60 74 63 92 96 97 96
22 23 28 33 27 20 16 13 18 21 17 13 18 39 43 55 57 56 53 44 23 14 22 42 66 60 73 59 57 54 34 17 14 15 20 44 53 56 57 95 96 90 94
25 30 41 40 30 22 17 19 25 29 34 23 38 55 75 53 64 64 56 65 54 30 45 62 69 61 57 52 43 62 44 36 17 17 24 50 66 61 64 81 96 87 95
34 49 44 35 33 22 21 21 29 32 37 39 60 77 88 88 82 73 72 72 68 66 65 44 32 28 30 50 56 54 56 59 62 22 60 59 80 58 91 80 92 96 98
34 45 48 39 33 33 28 24 32 37 38 64 83 87 98 98 100 100 82 87 87 60 39 32 28 27 32 39 53 70 73 53 100 83 93 94 100 98 97 71 70 96 97
28 21 20 25 24 31 32 29 36 36 48 92 100 96 98 100 100 100 100 100 69 40 35 26 21 21 34 46 81 84 82 63 92 100 100 100 98 97 97 95 90 92 96
30 53 62 62 49 38 18 14 24 48 91 100 99 100 100 100 100 100 100 73 63 51 30 30 19 20 18 31 89 100 86 82 69 99 98 98 98 96 98 98 91 97 95
62 59 36 20 16 14 15 24 34 72 100 100 100 100 100 100 100 100 100 73 65 55 36 36 30 22 19 24 60 100 92 87 68 80 97 94 95 96 93 94 97 98 97
47 33 30 25 26 44 79 88 80 100 100 100 100 100 99 100 100 100 97 89 84 63 48 40 30 15 15 20 27 77 96 93 85 65 72 91 86 84 96 81 54 78 70
42 46 55 50 82 100 100 100 100 90 90 100 100 100 100 100 100 96 84 76 66 50 34 24 19 15 15 16 19 26 51 71 81 88 69 62 68 47 64 71 29 53 26
60 69 91 99 100 100 100 99 81 70 54 58 68 88 96 100 100 83 55 39 28 23 20 18 17 15 14 15 18 23 21 27 37 39 54 84 82 70 64 55 83 24 20
68 86 96 100 100 99 95 92 88 84 76 77 45 42 47 50 58 74 63 48 36 35 43 42 39 34 32 28 22 23 23 22 21 20 24 37 62 73 82 76 75 67 38
65 72 95 100 100 100 86 58 41 42 37 33 59 64 59 50 23 10 10 9 8 7 9 12 17 23 29 24 20 28 36 40 30 36 37 32 27 23 38 79 82 45 74
71 77 93 99 92 79 54 42 35 29 26 23 23 21 19 14 9 8 9 9 9 9 9 9 8 8 8 7 7 7 6 7 7 13 14 26 41 50 58 29 36 87 80

GFSMA_500_rhum_141.txt.gz
RH
25 26 30 33 33 33 32 31 34 37 39 39 40 46 45 41 29 40 49 62 54 54 87 95 95 82 80 96 95 90 67 53 45 39 35 34 28 28 28 39 53 50 56
32 32 30 29 29 30 31 30 30 30 30 30 30 33 31 30 32 37 48 43 49 50 71 96 87 97 96 96 96 96 95 84 62 43 38 35 48 31 28 28 40 51 51
19 18 19 19 21 21 23 23 23 22 24 24 24 24 24 24 28 36 44 46 29 32 44 94 90 51 72 42 90 90 96 95 89 66 45 43 45 43 35 32 34 58 50
16 16 16 17 17 17 16 16 16 15 15 16 17 20 22 23 23 23 24 31 28 20 20 19 32 19 20 14 17 60 96 97 96 93 80 54 47 47 48 37 34 43 53
17 16 15 12 11 10 10 9 9 9 10 10 11 14 16 17 18 20 23 23 24 24 21 18 15 14 14 13 19 65 95 93 97 96 88 95 87 67 70 64 38 33 46
14 12 12 11 10 9 8 7 6 5 5 5 6 10 10 11 14 16 17 18 20 22 22 21 19 18 17 17 18 42 31 18 83 56 46 97 92 94 87 76 72 40 38
13 12 11 10 8 7 6 4 4 4 4 3 4 7 6 7 11 11 12 15 17 18 18 19 19 19 18 16 16 16 14 27 42 39 27 81 58 77 93 96 85 63 48
12 10 9 8 7 6 6 5 5 4 4 4 4 6 9 10 11 10 11 12 16 16 14 16 17 18 17 16 17 19 18 21 34 28 24 30 47 76 70 89 94 96 93
13 11 9 8 8 8 7 6 5 4 4 8 8 10 11 12 14 15 16 17 17 34 36 17 16 18 24 18 19 25 26 18 20 19 14 15 16 50 43 69 74 94 96
17 15 13 12 12 12 11 7 6 7 9 13 13 11 10 10 11 13 14 16 17 16 15 15 16 20 22 36 23 18 25 23 16 15 15 14 12 14 26 52 74 86 96
18 15 14 14 14 13 10 8 9 12 13 16 12 12 10 9 9 9 14 14 13 14 14 15 14 16 16 16 20 16 19 22 16 12 17 16 12 14 20 42 72 74 87
17 17 18 17 17 14 11 10 11 16 20 19 17 14 13 13 12 10 12 17 26 16 14 18 20 20 21 23 16 15 17 16 12 10 8 13 12 14 25 47 71 60 82
21 22 22 20 16 14 14 15 18 22 27 20 16 14 11 10 10 11 13 15 20 33 32 27 31 37 28 24 20 18 18 16 15 12 9 6 7 8 12 28 52 70 59
30 30 28 21 15 15 19 25 40 37 29 19 15 15 15 19 15 12 14 22 30 49 49 66 68 50 38 25 24 24 26 19 18 17 17 11 6 7 7 23 46 63 60
40 36 28 17 15 18 21 27 44 37 30 20 19 18 19 29 30 37 47 73 53 68 74 89 100 84 42 30 38 37 52 54 50 34 33 30 10 5 11 35 48 74 76
39 30 17 13 14 22 26 27 24 42 33 30 28 22 25 38 46 79 87 93 77 69 79 89 90 60 48 85 69 53 34 38 55 52 38 39 26 9 11 56 76 74 93
30 19 13 13 11 12 30 50 46 27 25 30 27 28 37 79 98 100 100 100 99 82 84 70 84 98 72 52 36 27 23 26 40 62 62 44 37 43 50 48 100 100 100
22 14 11 10 8 43 49 40 29 30 28 17 31 38 97 100 100 100 100 100 100 100 82 93 80 51 34 30 28 19 19 27 37 55 77 73 51 50 64 68 96 98 100
15 12 12 17 43 42 30 17 15 18 18 30 68 100 100 100 100 100 100 100 100 100 100 100 70 42 43 25 21 20 19 28 43 85 84 91 84 88 50 98 99 96 93
13 14 39 45 37 23 17 22 40 41 45 74 100 100 100 100 100 100 100 100 100 100 98 80 70 49 39 36 29 23 21 22 50 98 100 97 99 94 64 78 98 96 99
13 55 49 38 33 30 33 58 95 100 99 100 100 100 100 100 100 100 100 100 100 96 84 73 74 60 47 36 32 20 16 21 27 87 94 89 89 83 68 75 95 97 94
51 56 47 45 44 57 90 100 100 100 90 86 84 99 98 97 99 100 100 100 100 100 86 63 54 46 40 26 21 16 16 17 24 33 99 99 96 92 69 55 59 90 94
61 50 57 59 79 96 100 100 98 85 67 48 73 63 66 57 98 100 100 100 96 85 68 52 41 29 26 22 17 17 20 21 23 26 48 80 92 89 89 78 72 63 59
60 55 58 64 74 95 100 98 90 92 88 66 86 45 40 26 24 23 24 27 26 26 26 29 29 30 34 37 36 34 31 32 34 33 32 27 32 44 37 43 56 72 74
59 62 54 69 70 88 91 92 75 48 54 54 32 40 62 49 27 18 10 8 8 8 8 8 8 8 9 10 10 12 13 13 12 18 24 30 36 30 26 28 29 37 52
76 66 60 67 86 94 90 85 68 39 30 25 21 20 22 19 16 9 8 8 10 10 11 11 12 12 12 11 10 10 9 8 9 10 10 11 11 14 16 32 31 31 30

GFSMA_500_rhum_144.txt.gz
RH
24 24 35 35 34 33 32 29 28 27 29 30 31 32 31 30 30 33 37 35 32 31 34 46 68 63 65 81 96 96 96 96 94 94 74 41 27 31 44 37 45 58 46
36 37 31 28 27 24 22 21 20 19 17 18 19 21 23 24 25 24 24 25 26 28 33 44 61 91 63 78 94 96 83 96 97 95 92 79 58 34 42 51 38 48 57
26 24 19 17 17 16 16 16 16 16 16 15 15 15 15 14 14 16 17 22 25 24 24 31 42 43 43 57 77 95 67 90 90 95 97 96 80 66 43 52 54 43 40
17 16 16 16 16 16 15 14 13 12 10 10 9 8 7 7 7 7 9 12 16 20 24 24 26 29 29 24 22 37 34 22 25 48 85 97 96 92 52 53 55 38 43
17 16 16 16 15 13 12 11 10 9 8 7 6 6 5 4 4 4 5 6 8 12 17 21 24 23 23 25 23 20 16 14 16 30 96 97 96 94 93 72 49 51 53
16 16 16 14 13 11 10 9 9 8 7 6 6 4 4 4 3 3 3 3 4 6 10 16 20 21 22 22 22 20 18 17 19 33 50 76 88 67 96 94 92 71 68
18 17 15 14 13 12 11 9 8 7 6 5 5 5 5 5 5 4 4 3 3 5 5 8 14 17 20 21 22 21 20 18 17 20 31 37 54 70 56 79 84 96 93
18 17 16 16 15 14 14 11 11 10 9 8 8 8 10 15 14 7 3 4 5 6 8 10 14 21 16 19 21 20 19 17 18 23 28 35 61 86 80 56 87 72 95
19 19 18 19 18 16 15 14 13 13 15 18 20 19 16 12 7 5 5 7 9 11 12 13 24 33 37 30 20 20 19 18 18 15 16 27 48 29 31 35 51 54 73
23 23 22 22 18 16 14 14 16 18 19 22 20 15 12 9 7 6 10 12 11 10 12 13 14 18 22 31 32 25 19 18 17 15 14 16 22 23 17 19 21 33 72
28 28 26 21 18 18 20 20 23 26 28 24 22 13 9 10 14 18 17 15 14 13 11 15 16 15 15 15 18 20 30 34 42 32 16 14 16 19 18 16 17 27 53
32 30 26 23 25 26 26 29 30 24 18 17 13 7 10 19 31 27 20 15 12 12 13 15 17 16 21 14 14 16 16 14 14 18 16 15 14 14 17 19 18 25 47
42 38 35 35 33 31 32 26 22 19 14 7 7 10 27 36 31 21 16 13 13 14 16 13 14 18 21 48 18 18 16 15 14 12 12 12 12 11 9 14 21 31 23
48 47 43 38 34 30 26 22 16 9 6 7 9 24 44 39 24 23 19 18 14 17 20 19 24 20 19 48 79 33 25 17 14 13 12 13 12 9 8 7 10 15 47
46 45 38 33 32 31 24 15 8 7 8 15 34 36 23 42 36 31 25 19 20 23 24 27 24 26 24 49 48 77 36 27 19 14 13 12 12 13 8 6 6 7 14
59 46 33 30 30 26 17 10 8 8 21 38 43 45 29 29 31 29 26 25 37 45 49 57 64 77 69 66 52 84 69 42 30 20 17 16 16 24 20 8 6 6 6
53 30 28 34 28 16 10 9 7 15 33 33 23 23 39 31 27 35 70 74 94 100 100 99 100 89 77 94 94 94 81 39 28 46 50 60 62 62 56 34 17 16 8
52 37 34 28 19 11 10 6 15 31 20 14 12 12 14 36 84 100 100 100 100 100 100 100 100 100 100 100 92 73 62 81 76 55 36 32 32 49 64 66 43 36 36
49 40 30 21 14 11 7 20 27 16 19 21 22 23 54 100 100 100 100 100 100 100 100 100 100 100 99 100 96 65 44 34 32 33 34 33 32 41 48 64 70 50 52
47 36 25 17 12 13 22 26 19 27 52 70 76 77 99 100 100 100 100 100 100 100 100 100 100 100 100 97 64 40 30 28 25 23 23 21 44 70 70 68 73 74 67
50 34 23 16 15 29 30 28 41 77 100 100 99 90 97 100 100 100 100 100 100 100 100 100 100 100 100 59 50 40 29 25 25 23 22 24 51 98 96 94 97 97 98
39 26 17 11 30 40 39 48 75 95 100 100 78 45 62 98 97 100 99 100 100 100 100 100 100 100 86 60 40 31 29 25 24 21 20 22 38 94 100 100 100 94 92
26 22 14 32 45 40 55 68 87 100 94 87 53 72 86 74 87 92 97 99 99 97 99 100 100 99 96 86 76 54 40 34 33 35 31 29 28 36 61 96 100 97 98
27 16 28 50 44 40 56 62 83 100 90 86 83 82 79 66 62 36 34 31 23 19 28 58 52 32 24 26 35 20 15 21 23 28 32 35 43 43 40 38 46 65 85
24 28 49 50 47 52 54 61 86 86 58 66 53 38 32 37 76 70 37 13 12 12 12 13 12 12 12 12 11 11 12 11 10 11 11 11 14 18 21 25 28 34 38
23 59 59 52 60 66 70 71 77 80 59 36 29 24 20 20 24 19 16 10 10 10 11 12 12 13 13 14 16 15 14 14 14 13 12 11 11 12 12 13 13 15 18